Regional Weather Roundup
Issued by NWS

Home | Current Version | Previous Version | Graphics & Text | Print | Product List | Glossary On
Versions: 1 2 3 4 5 6 7 8 9 10 11 12 13 14 15 16 17 18 19 20 21 22 23 24 25 26 27 28 29 30 31 32 33 34 35 36 37 38 39 40 41 42 43 44 45 46 47 48 49 50
000
ASUS43 KIND 182209
RWRIN

WEATHER ROUNDUP FOR INDIANA
NATIONAL WEATHER SERVICE INDIANAPOLIS IN
500 PM EST THU JAN 18 2018

NOTE: "FAIR" INDICATES FEW OR NO CLOUDS BELOW 12,000 FEET WITH NO
SIGNIFICANT WEATHER AND/OR OBSTRUCTIONS TO VISIBILITY.

* - STATION DOES NOT REPORT WEATHER SUCH AS PRECIPITATION OR FOG.

+ - STATION NOT QUALITY CONTROLLED BY THE NATIONAL WEATHER SERVICE.
    USE DATA WITH CAUTION...ESPECIALLY DEWPOINT AND RELATIVE
    HUMIDITY OBSERVATIONS.

INZ001>003-010>013-019-020-182300-
NORTHWEST INDIANA

CITY           SKY/WX    TMP DP  RH WIND       PRES   REMARKS
GARY /AIRPORT/ CLEAR     32  18  55 SW24      30.03F WCI  19
KNOX *+        FAIR      28  19  69 SW17      30.06F WCI  16
LA PORTE +     FAIR      27  18  67 SW13      30.04S WCI  17
MICHIGAN CITY+ FAIR      30  18  59 SW13      30.03S WCI  20
MONTICELLO +   FAIR      29  15  55 SW12      30.10F WCI  19
RENSSELAER +   FAIR      30  19  64 S14G20    30.09S WCI  20
VALPARAISO     FAIR      31  18  58 SW16G24   30.04F WCI  20

$$

LMZ046-743>745-182300-
SOUTHERN LAKE MICHIGAN

STATION/POSITION TIME  TEMP    WIND        PRES    WAVE
                       AIR SEA DIR/SP/G            HT
                 (UTC) (F)     (DEG/KT/KT) (MB)    (FT)
BURNS HARBOR     2140   30     200/ 17/ 22 1016.9F
MICHIGAN CITY    2140   30     190/ 17/ 20   N/A

$$

INZ004-005-014>016-021>024-182300-
NORTH CENTRAL INDIANA

CITY           SKY/WX    TMP DP  RH WIND       PRES   REMARKS
ELKHART        FAIR      28  16  59 SW14      30.03F WCI  17
GOSHEN         FAIR      26  15  63 SW18G28   30.05S WCI  13
LOGANSPORT +   FAIR      28  18  64 SW12      30.11F WCI  18
PERU/GRISSOM   FAIR      27  16  64 SW16      30.10S WCI  14
ROCHESTER +    FAIR      30  19  64 SW10      30.08F WCI  21
SOUTH BEND     FAIR      27  16  63 SW20G25   30.03F WCI  13
WARSAW +       FAIR      28  16  59 SW6       30.06F WCI  22

$$

INZ006>009-017-018-025>027-182300-
NORTHEAST INDIANA

CITY           SKY/WX    TMP DP  RH WIND       PRES   REMARKS
AUBURN +       FAIR      28  14  54 SW9G18    30.07S WCI  20
FORT WAYNE     FAIR      26  17  68 SW15      30.10S WCI  14
HUNTINGTON +   FAIR      27  14  59 SW9G17    30.10S WCI  17
KENDALLVILLE + FAIR      28  15  59 SW13      30.04F WCI  17

$$

INZ028-029-035-036-043>045-051>053-182300-
WEST CENTRAL INDIANA

CITY           SKY/WX    TMP DP  RH WIND       PRES   REMARKS
CRAWFORDSVL +  FAIR      26  15  65 MISG        N/A
GREENCASTLE +  FAIR      28  14  54 SW7       30.18F WCI  21
LAFAYETTE      FAIR      29  15  56 SW10      30.12F WCI  20
TERRE HAUTE    FAIR      27  15  61 S15       30.20F WCI  15

$$

INZ030>032-037>040-046>048-054>057-064-065-182300-
CENTRAL INDIANA

CITY           SKY/WX    TMP DP  RH WIND       PRES   REMARKS
COLUMBUS       CLEAR     30  12  47 S12       30.22S WCI  21
FRANKFORT +    FAIR      30  19  63 SW14      30.14S WCI  19
GREENWOOD *+   FAIR      34  13  42 SW13      30.18F WCI  25
INDIANAPOLIS   FAIR      30  14  51 SW16      30.17F WCI  19
-EAGLE CREEK   FAIR      29  13  51 SW10G22   30.16F WCI  20
MARION +       FAIR      28  17  64 SW14      30.13S WCI  16
MT COMFORT *+  FAIR      32  18  55 SW13      30.16F WCI  22
SHELBYVILLE    FAIR      32  14  47 SW17      30.18F WCI  21
ZIONSVILLE +   FAIR      27  14  56 SW16      30.15S WCI  15

$$

INZ033-034-041-042-049-050-058-059-182300-
EAST CENTRAL INDIANA

CITY           SKY/WX    TMP DP  RH WIND       PRES   REMARKS
MUNCIE         FAIR      31  13  47 SW13      30.13S WCI  21
RICHMOND +     FAIR      28  14  54 SW12      30.17S WCI  18

$$

INZ060-061-067>069-081>083-085>088-182300-
SOUTHWEST INDIANA

CITY           SKY/WX    TMP DP  RH WIND       PRES   REMARKS
EVANSVILLE     NOT AVBL
HUNTINGBURG +  FAIR      30  17  58 S12       30.31F WCI  20
WASHINGTON +   FAIR      30  13  48 S13       30.27F WCI  20

$$

INZ062-063-066-070>080-084-089>092-182300-
SOUTH CENTRAL AND SOUTHEAST INDIANA

CITY           SKY/WX    TMP DP  RH WIND       PRES   REMARKS
BATESVILLE *+    N/A    N/A N/A N/A MISG        N/A
BEDFORD +      FAIR      32  10  40 SW14      30.24F WCI  22
BLOOMINGTON    FAIR      32  13  45 SW15      30.21F WCI  22
FRENCH LICK *+ FAIR      28   9  43 SW13G18   30.27F WCI  18
MADISON *+     FAIR      30  14  51 S13       30.27F WCI  20
NORTH VERNON + FAIR      28  14  54 SW12      30.25S WCI  18
SEYMOUR +      FAIR      34  14  44 S8        30.26S WCI  27

$$





USA.gov is the U.S. government's official web portal to all federal, state and local government web resources and services.